St. Paul, MN

2:25 AM CST on February 24, 2018 (GMT -0600)
Saint Paul Downtown-Holman

Weather History for KSTP - December, 2013

Change the Weather History Date:

Sunday, December 22, 2013

  Actual Average Record
Temperature  
Mean Temperature 14 °F -  
Max Temperature 19 °F 23 °F 41 °F (2005)
Min Temperature 8 °F 9 °F -9 °F (2008)
Degree Days  
Heating Degree Days 52    
Moisture  
Dew Point 10 °F    
Average Humidity 79    
Maximum Humidity 86    
Minimum Humidity 73    
Precipitation  
Precipitation 0.00 in - - ()
Sea Level Pressure  
Sea Level Pressure 30.09 in    
Wind  
Wind Speed 10 mph (NW)    
Max Wind Speed 14 mph    
Max Gust Speed -    
Visibility 6 miles    
Events Snow    
Averages and records for this station are not official NWS values.
T = Trace of Precipitation, MM = Missing Value Source: NWS Daily Summary

Daily Weather History Graph

Daily Weather History Graph

Search for Another Location

Airport or City:

Trip Planner

Search our weather history database for the weather conditions in past years. The results will help you decide how hot, cold, wet, or windy it might be!

Date:

Astronomy

Dec. 22, 2013 Rise Set
Actual Time 7:47 AM CST 4:34 PM CST
Civil Twilight 7:13 AM CST 5:08 PM CST
Nautical Twilight 6:36 AM CST 5:45 PM CST
Astronomical Twilight 6:00 AM CST 6:21 PM CST
Moon 10:00 PM CST (12/22) 10:32 AM CST (12/22)
Length of Visible Light 9h 54m
Length of Day
8h 46m
Waning Gibbous, 76% of the Moon is Illuminated
Dec 22
Waning Gibbous
Dec 25
Last Quarter
Jan 1
New
Jan 7
First Quarter
Jan 15
Full

Hourly Weather History & Observations

Time (CST) Temp. Windchill Dew Point Humidity Pressure Visibility Wind Dir Wind Speed Gust Speed Precip Events Conditions
12:53 AM 15.1 °F 4.2 °F 10.0 °F 80% 29.99 in 10.0 mi NNW 8.1 mph - N/A   Overcast
1:53 AM 16.0 °F 3.6 °F 10.0 °F 77% 29.99 in 10.0 mi NNW 10.4 mph - N/A   Overcast
2:42 AM 15.8 °F 5.1 °F 10.4 °F 79% 29.98 in 10.0 mi NNW 8.1 mph - N/A   Overcast
2:53 AM 16.0 °F 5.3 °F 10.0 °F 77% 30.02 in 10.0 mi NW 8.1 mph - N/A   Overcast
3:53 AM 16.0 °F 5.3 °F 10.9 °F 81% 30.01 in 10.0 mi WNW 8.1 mph - N/A   Overcast
4:53 AM 17.1 °F 5.8 °F 10.9 °F 77% 30.00 in 10.0 mi NNW 9.2 mph - N/A   Overcast
5:53 AM 17.1 °F 6.6 °F 12.0 °F 81% 30.01 in 10.0 mi NW 8.1 mph - N/A   Overcast
6:53 AM 18.0 °F 7.7 °F 12.9 °F 81% 30.01 in 10.0 mi NNW 8.1 mph - N/A   Overcast
7:53 AM 18.0 °F 6.9 °F 12.9 °F 81% 30.02 in 10.0 mi NW 9.2 mph - N/A   Overcast
8:01 AM 19.4 °F 9.5 °F 14.0 °F 80% 29.99 in 10.0 mi NW 8.1 mph - N/A   Overcast
8:13 AM 19.4 °F 10.4 °F 14.0 °F 80% 29.99 in 10.0 mi NW 6.9 mph - N/A   Overcast
8:49 AM 19.4 °F 7.9 °F 14.0 °F 80% 29.99 in 10.0 mi NW 10.4 mph - N/A   Overcast
8:53 AM 19.0 °F 8.2 °F 14.0 °F 81% 30.03 in 10.0 mi NW 9.2 mph - N/A   Overcast
9:46 AM 19.4 °F 9.5 °F 15.8 °F 86% 30.01 in 2.0 mi NW 8.1 mph - 0.00 in Snow Light Snow
9:53 AM 19.9 °F 9.3 °F 15.1 °F 81% 30.05 in 1.5 mi NW 9.2 mph - 0.00 in Snow Light Snow
10:44 AM 19.4 °F 7.9 °F 15.8 °F 86% 30.03 in 1.2 mi NW 10.4 mph - 0.00 in Snow Light Snow
10:51 AM 19.4 °F 7.2 °F 15.8 °F 86% 30.03 in 1.5 mi NW 11.5 mph - 0.00 in Snow Light Snow
10:53 AM 19.9 °F 9.3 °F 15.1 °F 81% 30.06 in 1.5 mi NW 9.2 mph - 0.00 in Snow Light Snow
11:00 AM 19.4 °F 7.2 °F 15.8 °F 86% 30.03 in 2.0 mi NW 11.5 mph - 0.00 in Snow Light Snow
11:23 AM 19.4 °F 7.2 °F 15.8 °F 86% 30.03 in 1.8 mi NW 11.5 mph - 0.00 in Snow Light Snow
11:34 AM 19.4 °F 6.6 °F 15.8 °F 86% 30.02 in 2.5 mi NW 12.7 mph - 0.00 in Snow Light Snow
11:49 AM 19.4 °F 6.6 °F 14.0 °F 80% 30.02 in 3.0 mi NW 12.7 mph - 0.00 in Snow Light Snow
11:53 AM 19.9 °F 7.9 °F 14.0 °F 78% 30.05 in 3.0 mi NW 11.5 mph - 0.00 in Snow Light Snow
12:25 PM 19.4 °F 6.6 °F 14.0 °F 80% 30.02 in 8.0 mi NW 12.7 mph - 0.00 in   Overcast
12:53 PM 19.9 °F 7.9 °F 14.0 °F 78% 30.06 in 9.0 mi NW 11.5 mph - 0.00 in   Overcast
1:53 PM 19.9 °F 8.6 °F 12.9 °F 74% 30.07 in 10.0 mi NW 10.4 mph - N/A   Mostly Cloudy
2:53 PM 19.9 °F 7.9 °F 12.9 °F 74% 30.09 in 10.0 mi NW 11.5 mph - 0.00 in   Overcast
3:53 PM 19.0 °F 6.8 °F 12.0 °F 74% 30.12 in 10.0 mi WNW 11.5 mph - N/A   Overcast
4:32 PM 17.6 °F 5.0 °F 10.4 °F 73% 30.11 in 1.8 mi NW 11.5 mph - 0.00 in Snow Light Snow
4:37 PM 17.6 °F 5.0 °F 10.4 °F 73% 30.11 in 1.2 mi WNW 11.5 mph - 0.00 in Snow Light Snow
4:51 PM 17.6 °F 5.0 °F 12.2 °F 79% 30.11 in 2.0 mi WNW 11.5 mph - 0.00 in Snow Light Snow
4:52 PM 18.0 °F 5.4 °F 12.0 °F 78% 30.15 in 2.0 mi WNW 11.5 mph - 0.00 in Snow Light Snow
5:01 PM 17.6 °F 5.0 °F 10.4 °F 73% 30.12 in 4.0 mi West 11.5 mph - 0.00 in Snow Light Snow
5:18 PM 15.8 °F 1.4 °F 10.4 °F 79% 30.13 in 4.0 mi WNW 13.8 mph - 0.00 in Snow Light Snow
5:53 PM 14.0 °F -0.8 °F 8.1 °F 77% 30.18 in 2.5 mi NW 13.8 mph - 0.00 in Snow Light Snow
6:16 PM 14.0 °F -0.8 °F 8.6 °F 79% 30.15 in 3.0 mi NW 13.8 mph - 0.00 in Snow Light Snow
6:53 PM 12.9 °F 0.7 °F 7.0 °F 77% 30.19 in 4.0 mi WNW 9.2 mph - 0.00 in Snow Light Snow
7:41 PM 12.2 °F -1.0 °F 6.8 °F 79% 30.17 in 4.0 mi NW 10.4 mph - 0.00 in Snow Light Snow
7:53 PM 12.0 °F -1.3 °F 6.1 °F 77% 30.21 in 7.0 mi WNW 10.4 mph - 0.00 in Snow Light Snow
8:24 PM 10.4 °F -2.4 °F 5.0 °F 79% 30.17 in 10.0 mi WNW 9.2 mph - 0.00 in   Scattered Clouds
8:45 PM 10.4 °F -4.1 °F 5.0 °F 79% 30.18 in 8.0 mi West 11.5 mph - 0.00 in   Mostly Cloudy
8:53 PM 10.9 °F -2.6 °F 5.0 °F 77% 30.22 in 9.0 mi WNW 10.4 mph - 0.00 in   Mostly Cloudy
9:05 PM 10.4 °F -3.3 °F 5.0 °F 79% 30.18 in 9.0 mi WNW 10.4 mph - N/A   Overcast
9:53 PM 10.9 °F -2.6 °F 5.0 °F 77% 30.23 in 10.0 mi WNW 10.4 mph - 0.00 in   Overcast
10:24 PM 10.4 °F -4.1 °F 5.0 °F 79% 30.20 in 10.0 mi West 11.5 mph - N/A   Overcast
10:53 PM 10.9 °F -4.1 °F 3.9 °F 73% 30.25 in 3.0 mi WNW 12.7 mph - 0.00 in Snow Light Snow
11:13 PM 10.4 °F -4.8 °F 3.2 °F 73% 30.22 in 2.0 mi WNW 12.7 mph - 0.00 in Snow Light Snow
11:31 PM 10.4 °F -4.1 °F 3.2 °F 73% 30.23 in 3.0 mi WNW 11.5 mph - 0.00 in Snow Light Snow
11:39 PM 8.6 °F -7.0 °F 3.2 °F 79% 30.23 in 2.0 mi West 12.7 mph - 0.00 in Snow Light Snow
11:53 PM 8.1 °F -7.0 °F 3.0 °F 80% 30.27 in 2.5 mi West 11.5 mph - 0.00 in Snow Light Snow